Location: ???????????
(55.5758°N, 38.4970°E)
Time: 17:02:38
(UTC+00:00)

Cosmos 2016 Rocket - Pass Details

Date: 15 November 2025
Orbit: 946 x 999 km, 83.0° (Epoch: 14 December)

Event Time Altitude Azimuth Distance (km) Brightness Sun altitude
Rises 01:34:52 0° 348° (NNW) 3,737 7.0 -28.6°
Reaches altitude 10° 01:37:25 10° 347° (NNW) 2,783 6.3 -28.3°
Maximum altitude 01:43:49 81° 262° (W) 1,017 3.9 -27.4°
Drops below altitude 10° 01:50:09 10° 176° (S) 2,747 6.3 -26.5°
Sets 01:52:38 0° 176° (S) 3,685 7.0 -26.1°
